Tracking 29747 objects as of 10-Oct-2024
HD Live streaming from Space Station
objects crossing your sky now

STARLINK-5494

Track STARLINK-5494 now!
10-day predictions
STARLINK-5494 is classified as:


NORAD ID: 55650
Int'l Code: 2023-021Y
Perigee: 577.2 km
Apogee: 580.9 km
Inclination: 70.0 °
Period: 96.1 minutes
Semi major axis: 6950 km
RCS: Unknown
Launch date: February 17, 2023
Source: United States (US)
Launch site: AIR FORCE WESTERN TEST RANGE (AFWTR)
Your satellite tracking list
Your tracking list is empty




NASA's NSSDC Master Catalog

Two Line Element Set (TLE):
1 55650U 23021Y   24283.78119783 -.00009321  00000-0 -77365-3 0  9990
2 55650  70.0002  45.2297 0002654 257.9353 102.1509 14.98367378 91219
Source of the keplerian elements: AFSPC